NI4CE-10 Weather Reports


time (UTC)temp
C
wind
direction
speed
KPH
gust
KPH
rain 1hr
cm
rain 24hr
cm
rain mn
cm
humidity
%
barometer
mb
20260508182625 36 327 14.5 16.1 0.00 0.00 0.00 100 1016.6
20260508182528 36 327 14.5 16.1 0.00 0.00 0.00 100 1016.6
20260508182152 35 305 8.0 9.7 0.00 0.00 0.00 100 1016.7
20260508182028 35 305 8.0 9.7 0.00 0.00 0.00 100 1016.7
20260508181648 35 37 4.8 17.7 0.00 0.00 0.00 100 1016.9
20260508181528 35 37 4.8 17.7 0.00 0.00 0.00 100 1016.9
20260508181028 34 15 4.8 17.7 0.00 0.00 0.00 100 1016.9
20260508180629 36 16 3.2 9.7 0.00 0.00 0.00 100 1016.9
20260508180528 36 16 3.2 9.7 0.00 0.00 0.00 100 1016.9
20260508180122 35 330 9.7 17.7 0.00 0.00 0.00 100 1017.1
20260508180029 35 330 9.7 17.7 0.00 0.00 0.00 100 1017.1
20260508175640 34 354 6.4 16.1 0.00 0.00 0.00 100 1017.4
20260508175622 35 344 11.3 11.3 0.00 0.00 0.00 100 1017.0
20260508175529 35 344 11.3 11.3 0.00 0.00 0.00 100 1017.0
20260508175153 35 30 0.0 16.1 0.00 0.00 0.00 100 1017.1
20260508175029 35 30 0.0 16.1 0.00 0.00 0.00 100 1017.1
20260508174649 33 319 12.9 12.9 0.00 0.00 0.00 100 1017.2
20260508174529 33 319 12.9 12.9 0.00 0.00 0.00 100 1017.2
20260508174029 34 357 8.0 14.5 0.00 0.00 0.00 100 1017.3
20260508173651 35 16 4.8 14.5 0.00 0.00 0.00 100 1017.3
20260508173529 35 16 4.8 14.5 0.00 0.00 0.00 100 1017.3
20260508173125 34 15 9.7 17.7 0.00 0.00 0.00 100 1017.2
20260508173029 34 15 9.7 17.7 0.00 0.00 0.00 100 1017.2
20260508172627 33 1 9.7 11.3 0.00 0.00 0.00 100 1017.2
20260508172529 33 1 9.7 11.3 0.00 0.00 0.00 100 1017.2
20260508172153 33 347 6.4 14.5 0.00 0.00 0.00 100 1017.3
20260508172029 33 347 6.4 14.5 0.00 0.00 0.00 100 1017.3
20260508171624 34 354 6.4 16.1 0.00 0.00 0.00 100 1017.4
20260508171529 34 354 6.4 16.1 0.00 0.00 0.00 100 1017.4
20260508171212 35 320 9.7 14.5 0.00 0.00 0.00 100 1017.4
20260508171029 35 320 9.7 14.5 0.00 0.00 0.00 100 1017.4
20260508170640 34 260 8.0 16.1 0.00 0.00 0.00 100 1017.5
20260508170529 34 260 8.0 16.1 0.00 0.00 0.00 100 1017.5
20260508170150 33 343 11.3 14.5 0.00 0.00 0.00 100 1017.6
20260508170029 33 343 11.3 14.5 0.00 0.00 0.00 100 1017.6
20260508165608 34 357 1.6 17.7 0.00 0.00 0.00 100 1017.7
20260508165529 34 357 1.6 17.7 0.00 0.00 0.00 100 1017.7
20260508165029 35 331 11.3 16.1 0.00 0.00 0.00 100 1017.7
20260508164529 34 352 12.9 14.5 0.00 0.00 0.00 100 1017.8
20260508164133 33 352 6.4 17.7 0.00 0.00 0.00 100 1017.9
20260508164029 33 352 6.4 17.7 0.00 0.00 0.00 100 1017.9
20260508163715 33 347 8.0 14.5 0.00 0.00 0.00 100 1018.1
20260508163656 33 45 9.7 20.9 0.00 0.00 0.00 100 1018.0
20260508163529 33 45 9.7 20.9 0.00 0.00 0.00 100 1018.0
20260508163123 32 19 11.3 16.1 0.00 0.00 0.00 100 1018.0
20260508163029 32 19 11.3 16.1 0.00 0.00 0.00 100 1018.0
20260508162615 33 347 8.0 14.5 0.00 0.00 0.00 100 1018.1
20260508162529 33 347 8.0 14.5 0.00 0.00 0.00 100 1018.1
20260508162123 35 271 8.0 12.9 0.00 0.00 0.00 100 1018.1
20260508162029 35 271 8.0 12.9 0.00 0.00 0.00 100 1018.1
20260508161529 34 36 0.0 16.1 0.00 0.00 0.00 100 1018.1
20260508161254 35 303 14.5 16.1 0.00 0.00 0.00 100 1018.2
20260508161029 35 303 14.5 16.1 0.00 0.00 0.00 100 1018.2
20260508160649 35 320 9.7 17.7 0.00 0.00 0.00 100 1018.3
20260508160529 35 320 9.7 17.7 0.00 0.00 0.00 100 1018.3
20260508160156 33 278 0.0 12.9 0.00 0.00 0.00 100 1018.3
20260508160029 33 278 0.0 12.9 0.00 0.00 0.00 100 1018.3
20260508155529 33 288 4.8 16.1 0.00 0.00 0.00 100 1018.4
20260508155029 33 56 4.8 20.9 0.00 0.00 0.00 100 1018.5
20260508154529 34 320 6.4 12.9 0.00 0.00 0.00 100 1018.5
20260508154029 32 28 3.2 17.7 0.00 0.00 0.00 100 1018.7
20260508153701 32 66 6.4 16.1 0.00 0.00 0.00 100 1018.7
20260508153529 32 66 6.4 16.1 0.00 0.00 0.00 100 1018.7
20260508153209 34 36 8.0 14.5 0.00 0.00 0.00 100 1018.7
20260508153029 34 36 8.0 14.5 0.00 0.00 0.00 100 1018.7
20260508152529 33 317 1.6 17.7 0.00 0.00 0.00 100 1018.8
20260508152207 33 42 3.2 14.5 0.00 0.00 0.00 100 1018.8
20260508152029 33 42 3.2 14.5 0.00 0.00 0.00 100 1018.8
20260508151529 33 350 11.3 17.7 0.00 0.00 0.00 100 1018.9
20260508151257 33 9 6.4 14.5 0.00 0.00 0.00 100 1018.9
20260508151029 33 9 6.4 14.5 0.00 0.00 0.00 100 1018.9
20260508150529 33 350 6.4 12.9 0.00 0.00 0.00 100 1018.8
20260508150236 33 4 8.0 14.5 0.00 0.00 0.00 100 1018.7
20260508150029 33 4 8.0 14.5 0.00 0.00 0.00 100 1018.7
20260508145652 33 28 6.4 14.5 0.00 0.00 0.00 100 1018.8
20260508145644 30 329 8.0 12.9 0.00 0.00 0.00 100 1019.0
20260508145529 33 28 6.4 14.5 0.00 0.00 0.00 100 1018.8
20260508145029 32 260 3.2 8.0 0.00 0.00 0.00 100 1018.8
20260508144529 32 9 8.0 14.5 0.00 0.00 0.00 100 1018.8
20260508144159 32 4 6.4 12.9 0.00 0.00 0.00 100 1018.8
20260508144029 32 4 6.4 12.9 0.00 0.00 0.00 100 1018.8
20260508143529 32 333 4.8 11.3 0.00 0.00 0.00 100 1018.8
20260508143029 31 8 9.7 14.5 0.00 0.00 0.00 100 1018.9
20260508142529 30 291 8.0 16.1 0.00 0.00 0.00 100 1018.8
20260508142200 32 4 11.3 14.5 0.00 0.00 0.00 100 1018.8
20260508142029 32 4 11.3 14.5 0.00 0.00 0.00 100 1018.8
20260508141529 31 12 3.2 17.7 0.00 0.00 0.00 100 1018.8
20260508141029 31 28 8.0 12.9 0.00 0.00 0.00 100 1018.9
20260508140530 31 343 9.7 14.5 0.00 0.00 0.00 100 1019.0
20260508140030 30 329 8.0 12.9 0.00 0.00 0.00 100 1019.0
20260508135530 31 331 6.4 12.9 0.00 0.00 0.00 100 1018.9
20260508135030 31 319 6.4 12.9 0.00 0.00 0.00 100 1018.9
20260508134530 30 29 6.4 6.4 0.00 0.00 0.00 100 1018.8
20260508134146 30 18 6.4 14.5 0.00 0.00 0.00 100 1018.8
20260508134030 30 278 1.6 12.9 0.00 0.00 0.00 100 1018.9
20260508133644 30 18 6.4 14.5 0.00 0.00 0.00 100 1018.8
20260508133530 30 18 6.4 14.5 0.00 0.00 0.00 100 1018.8
20260508133030 29 327 8.0 14.5 0.00 0.00 0.00 100 1018.9
20260508132530 30 320 6.4 9.7 0.00 0.00 0.00 100 1018.8
20260508132030 29 272 1.6 9.7 0.00 0.00 0.00 100 1018.8
20260508131530 29 329 4.8 11.3 0.00 0.00 0.00 100 1018.7
20260508131030 30 337 11.3 12.9 0.00 0.00 0.00 100 1018.7
20260508130530 29 323 8.0 9.7 0.00 0.00 0.00 100 1018.7
20260508130030 29 340 1.6 11.3 0.00 0.00 0.00 100 1018.6
20260508125530 28 312 4.8 8.0 0.00 0.00 0.00 100 1018.7
20260508125131 28 317 6.4 8.0 0.00 0.00 0.00 100 1018.6
20260508125030 28 317 6.4 8.0 0.00 0.00 0.00 100 1018.6
20260508124530 28 21 3.2 8.0 0.00 0.00 0.00 100 1018.6
20260508124030 28 289 3.2 6.4 0.00 0.00 0.00 100 1018.6
20260508123530 27 264 0.0 3.2 0.00 0.00 0.00 100 1018.6
20260508123030 27 279 0.0 3.2 0.00 0.00 0.00 100 1018.5
20260508122530 26 298 0.0 0.0 0.00 0.00 0.00 100 1018.5
20260508122030 26 298 0.0 0.0 0.00 0.00 0.00 100 1018.4
20260508121530 25 298 0.0 0.0 0.00 0.00 0.00 100 1018.3
20260508121030 25 298 0.0 0.0 0.00 0.00 0.00 100 1018.3
20260508120601 24 298 0.0 0.0 0.00 0.00 0.00 100 1018.3
20260508120530 24 298 0.0 0.0 0.00 0.00 0.00 100 1018.3
20260508120030 23 298 0.0 0.0 0.00 0.00 0.00 100 1018.2
20260508115530 23 298 0.0 0.0 0.00 0.00 0.00 100 1018.2
20260508115030 22 298 0.0 0.0 0.00 0.00 0.00 100 1018.1
20260508114530 21 298 0.0 0.0 0.00 0.00 0.00 100 1018.0
20260508114030 21 298 0.0 0.0 0.00 0.00 0.00 100 1018.0
20260508113530 20 298 0.0 0.0 0.00 0.00 0.00 100 1017.8
20260508113030 19 298 0.0 0.0 0.00 0.00 0.00 100 1017.7
20260508112530 18 298 0.0 0.0 0.00 0.00 0.00 100 1017.6
20260508112030 18 298 0.0 0.0 0.00 0.00 0.00 100 1017.6
20260508111530 17 298 0.0 0.0 0.00 0.00 0.00 100 1017.5
20260508111119 17 298 0.0 0.0 0.00 0.00 0.00 100 1017.2
20260508111030 17 298 0.0 0.0 0.00 0.00 0.00 100 1017.3
20260508110530 17 298 0.0 0.0 0.00 0.00 0.00 100 1017.3
20260508110030 17 298 0.0 0.0 0.00 0.00 0.00 100 1017.2
20260508105530 17 298 0.0 0.0 0.00 0.00 0.00 100 1017.2
20260508105409 17 298 0.0 0.0 0.00 0.00 0.00 100 1017.2
20260508105030 17 298 0.0 0.0 0.00 0.00 0.00 100 1017.2
20260508104925 17 298 0.0 0.0 0.00 0.00 0.00 100 1017.0
20260508104530 17 298 0.0 0.0 0.00 0.00 0.00 100 1017.1
20260508104030 17 298 0.0 0.0 0.00 0.00 0.00 100 1017.1
20260508103530 17 298 0.0 0.0 0.00 0.00 0.00 100 1017.0
20260508103430 17 298 0.0 0.0 0.00 0.00 0.00 100 1016.9
20260508103030 17 298 0.0 0.0 0.00 0.00 0.00 100 1017.0
20260508102530 17 298 0.0 0.0 0.00 0.00 0.00 100 1016.9
20260508102030 17 298 0.0 0.0 0.00 0.00 0.00 100 1016.9
20260508101530 17 298 0.0 0.0 0.00 0.00 0.00 100 1016.9
20260508101031 17 298 0.0 0.0 0.00 0.00 0.00 100 1016.8
20260508100610 17 298 0.0 0.0 0.00 0.00 0.00 100 1016.6
20260508100531 17 298 0.0 0.0 0.00 0.00 0.00 100 1016.7
20260508100031 17 298 0.0 0.0 0.00 0.00 0.00 100 1016.7
20260508095531 17 298 0.0 0.0 0.00 0.00 0.00 100 1016.6
20260508095031 17 298 0.0 0.0 0.00 0.00 0.00 100 1016.6
20260508094531 17 298 0.0 0.0 0.00 0.00 0.00 100 1016.5
20260508094031 17 298 0.0 0.0 0.00 0.00 0.00 100 1016.5
20260508093531 17 298 0.0 0.0 0.00 0.00 0.00 100 1016.5
20260508093031 17 298 0.0 0.0 0.00 0.00 0.00 100 1016.6
20260508092857 17 298 0.0 0.0 0.00 0.00 0.00 100 1016.5
20260508092531 17 298 0.0 0.0 0.00 0.00 0.00 100 1016.6
20260508092031 17 298 0.0 0.0 0.00 0.00 0.00 100 1016.5
20260508092024 17 298 0.0 0.0 0.00 0.00 0.00 100 1016.5
20260508091531 17 298 0.0 0.0 0.00 0.00 0.00 100 1016.5
20260508091031 18 298 0.0 0.0 0.00 0.00 0.00 100 1016.5
20260508090531 18 298 0.0 0.0 0.00 0.00 0.00 100 1016.5
20260508090031 18 298 0.0 0.0 0.00 0.00 0.00 100 1016.4
20260508085531 18 298 0.0 0.0 0.00 0.00 0.00 100 1016.5
20260508085031 18 298 0.0 0.0 0.00 0.00 0.00 100 1016.4
20260508084531 18 298 0.0 0.0 0.00 0.00 0.00 100 1016.4
20260508084031 18 298 0.0 0.0 0.00 0.00 0.00 100 1016.4
20260508083531 18 298 0.0 0.0 0.00 0.00 0.00 100 1016.4
20260508083031 18 298 0.0 0.0 0.00 0.00 0.00 100 1016.3
20260508082531 18 298 0.0 0.0 0.00 0.00 0.00 100 1016.4
20260508082031 18 298 0.0 0.0 0.00 0.00 0.00 100 1016.3
20260508081531 18 298 0.0 0.0 0.00 0.00 0.00 100 1016.4
20260508081031 18 298 0.0 0.0 0.00 0.00 0.00 100 1016.4
20260508080531 18 298 0.0 0.0 0.00 0.00 0.00 100 1016.3
20260508080111 18 298 0.0 0.0 0.00 0.00 0.00 100 1016.4
20260508080031 18 298 0.0 0.0 0.00 0.00 0.00 100 1016.4
20260508075531 18 298 0.0 0.0 0.00 0.00 0.00 100 1016.4
20260508075031 18 298 0.0 0.0 0.00 0.00 0.00 100 1016.5
20260508074531 18 298 0.0 0.0 0.00 0.00 0.00 100 1016.4
20260508074031 18 298 0.0 0.0 0.00 0.00 0.00 100 1016.5
20260508073531 18 298 0.0 0.0 0.00 0.00 0.00 100 1016.5
20260508073031 18 298 0.0 0.0 0.00 0.00 0.00 100 1016.5
20260508072531 18 298 0.0 0.0 0.00 0.00 0.00 100 1016.6
20260508072031 18 298 0.0 0.0 0.00 0.00 0.00 100 1016.6
20260508071531 18 298 0.0 0.0 0.00 0.00 0.00 100 1016.6
20260508071031 19 298 0.0 0.0 0.00 0.00 0.00 100 1016.6
20260508070531 19 298 0.0 0.0 0.00 0.00 0.00 100 1016.6
20260508070031 19 298 0.0 0.0 0.00 0.00 0.00 100 1016.6
20260508065531 19 298 0.0 0.0 0.00 0.00 0.00 100 1016.7
20260508065031 19 298 0.0 0.0 0.00 0.00 0.00 100 1016.7
20260508064531 20 298 0.0 0.0 0.00 0.00 0.00 100 1016.8
20260508064031 20 298 0.0 0.0 0.00 0.00 0.00 100 1016.9
20260508063531 20 298 0.0 0.0 0.00 0.00 0.00 100 1016.9
20260508063031 20 298 0.0 0.0 0.00 0.00 0.00 100 1016.9
20260508062531 20 298 0.0 3.2 0.00 0.00 0.00 100 1017.0
20260508062031 20 279 0.0 0.0 0.00 0.00 0.00 100 1017.1
20260508061531 20 279 0.0 0.0 0.00 0.00 0.00 100 1017.0
20260508061032 20 279 0.0 0.0 0.00 0.00 0.00 100 1017.0
20260508060532 20 279 0.0 0.0 0.00 0.00 0.00 100 1017.1
20260508060141 20 279 0.0 0.0 0.00 0.00 0.00 100 1017.2
20260508060032 20 279 0.0 0.0 0.00 0.00 0.00 100 1017.1
20260508055532 20 279 0.0 0.0 0.00 0.00 0.00 100 1017.2
20260508055032 20 279 0.0 0.0 0.00 0.00 0.00 100 1017.3
20260508054532 20 279 0.0 0.0 0.00 0.00 0.00 100 1017.3
20260508054032 20 279 0.0 0.0 0.00 0.00 0.00 100 1017.3
20260508053532 19 279 0.0 0.0 0.00 0.00 0.00 100 1017.4
20260508053440 20 279 0.0 0.0 0.00 0.00 0.00 100 1017.4
20260508053032 20 279 0.0 0.0 0.00 0.00 0.00 100 1017.4
20260508052532 20 279 0.0 0.0 0.00 0.00 0.00 100 1017.4
20260508052413 20 279 0.0 0.0 0.00 0.00 0.00 100 1017.4
20260508052032 20 279 0.0 0.0 0.00 0.00 0.00 100 1017.4
20260508052009 20 279 0.0 0.0 0.00 0.00 0.00 100 1017.4
20260508051532 20 279 0.0 0.0 0.00 0.00 0.00 100 1017.4
20260508051350 20 279 0.0 0.0 0.00 0.00 0.00 100 1017.5
20260508051032 20 279 0.0 0.0 0.00 0.00 0.00 100 1017.5
20260508050532 20 279 0.0 0.0 0.00 0.00 0.00 100 1017.5
20260508050526 21 279 0.0 0.0 0.00 0.00 0.00 100 1017.6
20260508050032 21 279 0.0 0.0 0.00 0.00 0.00 100 1017.5
20260508045532 21 279 0.0 0.0 0.00 0.00 0.00 100 1017.5
20260508045032 20 279 0.0 0.0 0.00 0.00 0.00 100 1017.5
20260508044532 21 279 0.0 0.0 0.00 0.00 0.00 100 1017.5
20260508044032 21 279 0.0 0.0 0.00 0.00 0.00 100 1017.5
20260508043532 21 279 0.0 0.0 0.00 0.00 0.00 100 1017.5
20260508043032 21 279 0.0 0.0 0.00 0.00 0.00 100 1017.6
20260508042532 21 279 0.0 0.0 0.00 0.00 0.00 100 1017.6
20260508042157 21 279 0.0 0.0 0.00 0.00 0.00 100 1017.6
20260508042032 21 279 0.0 0.0 0.00 0.00 0.00 100 1017.6
20260508041532 21 279 0.0 0.0 0.00 0.00 0.00 100 1017.6
20260508041032 21 279 0.0 0.0 0.00 0.00 0.00 100 1017.7
20260508040532 21 279 0.0 0.0 0.00 0.00 0.00 100 1017.7
20260508040032 21 279 0.0 0.0 0.00 0.00 0.00 100 1017.7
20260508035532 21 279 0.0 1.6 0.00 0.00 0.00 100 1017.8
20260508035032 21 279 1.6 4.8 0.00 0.00 0.00 100 1017.9
20260508034532 21 264 0.0 4.8 0.00 0.00 0.00 100 1017.9
20260508034032 21 310 4.8 6.4 0.00 0.00 0.00 100 1018.0
20260508033532 21 317 3.2 6.4 0.00 0.00 0.00 100 1017.9
20260508033032 21 320 0.0 0.0 0.00 0.00 0.00 100 1017.9
20260508032532 21 320 0.0 0.0 0.00 0.00 0.00 100 1017.8
20260508032032 21 320 0.0 0.0 0.00 0.00 0.00 100 1017.8
20260508031533 21 320 0.0 1.6 0.00 0.00 0.00 100 1017.8
20260508031032 21 279 0.0 3.2 0.00 0.00 0.00 100 1017.7
20260508030532 21 293 0.0 3.2 0.00 0.00 0.00 100 1017.7
20260508030032 21 282 1.6 3.2 0.00 0.00 0.00 100 1017.7
20260508025532 21 274 1.6 1.6 0.00 0.00 0.00 100 1017.7
20260508025032 21 282 1.6 3.2 0.00 0.00 0.00 100 1017.7
20260508024532 21 277 3.2 3.2 0.00 0.00 0.00 100 1017.7
20260508024032 21 254 0.0 4.8 0.00 0.00 0.00 100 1017.8
20260508023532 21 279 1.6 4.8 0.00 0.00 0.00 100 1017.7
20260508023032 21 296 1.6 3.2 0.00 0.00 0.00 100 1017.7
20260508022532 21 295 0.0 0.0 0.00 0.00 0.00 100 1017.7
20260508022032 21 295 0.0 1.6 0.00 0.00 0.00 100 1017.7
20260508021532 22 288 0.0 4.8 0.00 0.00 0.00 100 1017.8
20260508021033 22 306 0.0 3.2 0.00 0.00 0.00 100 1017.8
20260508020533 22 302 1.6 4.8 0.00 0.00 0.00 100 1017.8
20260508020033 22 312 1.6 4.8 0.00 0.00 0.00 100 1017.7
20260508015533 22 320 3.2 4.8 0.00 0.00 0.00 100 1017.7
20260508015033 22 310 1.6 6.4 0.00 0.00 0.00 100 1017.8
20260508014533 22 288 0.0 4.8 0.00 0.00 0.00 100 1017.7
20260508014033 22 295 0.0 0.0 0.00 0.00 0.00 100 1017.6
20260508013533 22 295 0.0 3.2 0.00 0.00 0.00 100 1017.6
20260508013033 22 288 1.6 4.8 0.00 0.00 0.00 100 1017.6
20260508012533 22 310 3.2 4.8 0.00 0.00 0.00 100 1017.6
20260508012256 22 296 0.0 4.8 0.00 0.00 0.00 100 1017.5
20260508012033 23 312 3.2 4.8 0.00 0.00 0.00 100 1017.5
20260508011533 22 296 0.0 4.8 0.00 0.00 0.00 100 1017.5
20260508011033 23 271 1.6 3.2 0.00 0.00 0.00 100 1017.5
20260508010812 23 303 0.0 0.0 0.00 0.00 0.00 100 1017.4
20260508010533 23 303 0.0 0.0 0.00 0.00 0.00 100 1017.4
20260508010033 23 303 0.0 0.0 0.00 0.00 0.00 100 1017.4
20260508005533 23 303 0.0 4.8 0.00 0.00 0.00 100 1017.4
20260508005254 24 274 0.0 0.0 0.00 0.00 0.00 100 1017.2
20260508005033 23 267 1.6 4.8 0.00 0.00 0.00 100 1017.4
20260508004533 23 319 1.6 3.2 0.00 0.00 0.00 100 1017.3
20260508004033 23 274 1.6 1.6 0.00 0.00 0.00 100 1017.3
20260508003533 23 274 0.0 0.0 0.00 0.00 0.00 100 1017.3
20260508003033 23 274 0.0 0.0 0.00 0.00 0.00 100 1017.2
20260508002533 24 274 0.0 0.0 0.00 0.00 0.00 100 1017.2
20260508002359 27 295 1.6 8.0 0.00 0.00 0.00 100 1017.1
20260508002033 25 274 0.0 0.0 0.00 0.00 0.00 100 1017.2
20260508001533 25 274 0.0 0.0 0.00 0.00 0.00 100 1017.2
20260508001033 26 274 0.0 0.0 0.00 0.00 0.00 100 1017.1
20260508000533 26 274 0.0 0.0 0.00 0.00 0.00 100 1017.1
20260508000033 26 274 0.0 4.8 0.00 0.00 0.00 100 1017.0
20260507235533 27 284 1.6 3.2 0.00 0.00 0.00 100 1017.0
20260507235033 27 279 1.6 8.0 0.00 0.00 0.00 100 1017.0
20260507234533 27 295 1.6 6.4 0.00 0.00 0.00 100 1017.1
20260507234033 27 295 1.6 8.0 0.00 0.00 0.00 100 1017.1
20260507233533 28 299 0.0 4.8 0.00 0.00 0.00 100 1017.1
20260507233033 28 286 0.0 11.3 0.00 0.00 0.00 100 1017.0
20260507232533 28 306 1.6 9.7 0.00 0.00 0.00 100 1017.0
20260507232033 28 295 6.4 12.9 0.00 0.00 0.00 100 1017.0
20260507231533 28 300 4.8 9.7 0.00 0.00 0.00 100 1017.0
20260507231033 29 298 1.6 11.3 0.00 0.00 0.00 100 1016.9
20260507230533 29 317 3.2 8.0 0.00 0.00 0.00 100 1016.8
20260507230033 29 282 3.2 11.3 0.00 0.00 0.00 100 1016.8
20260507225533 30 327 3.2 11.3 0.00 0.00 0.00 100 1016.8
20260507225033 30 312 9.7 16.1 0.00 0.00 0.00 100 1016.8
20260507224533 30 334 12.9 12.9 0.00 0.00 0.00 100 1016.8
20260507224033 30 267 6.4 12.9 0.00 0.00 0.00 100 1016.7
20260507223533 30 264 9.7 14.5 0.00 0.00 0.00 100 1016.7
20260507223033 30 295 4.8 16.1 0.00 0.00 0.00 100 1016.7
20260507222533 30 289 3.2 16.1 0.00 0.00 0.00 100 1016.7
20260507222033 30 284 4.8 17.7 0.00 0.00 0.00 100 1016.7
20260507221534 30 270 3.2 11.3 0.00 0.00 0.00 100 1016.8
20260507221034 30 313 6.4 11.3 0.00 0.00 0.00 100 1016.7
20260507220534 30 281 4.8 11.3 0.00 0.00 0.00 100 1016.8
20260507220034 30 268 6.4 14.5 0.00 0.00 0.00 100 1016.7
20260507215534 31 288 1.6 20.9 0.00 0.00 0.00 100 1016.7
20260507215034 30 312 3.2 16.1 0.00 0.00 0.00 100 1016.7
20260507214534 31 338 9.7 17.7 0.00 0.00 0.00 100 1016.8
20260507214034 31 310 9.7 12.9 0.00 0.00 0.00 100 1016.8
20260507213830 32 305 9.7 17.7 0.00 0.00 0.00 100 1016.8
20260507213534 31 326 12.9 17.7 0.00 0.00 0.00 100 1016.7
20260507213034 32 307 16.1 17.7 0.00 0.00 0.00 100 1016.7
20260507212534 32 305 9.7 17.7 0.00 0.00 0.00 100 1016.8
20260507212034 32 315 11.3 19.3 0.00 0.00 0.00 100 1016.8
20260507211534 32 317 9.7 14.5 0.00 0.00 0.00 100 1016.8
20260507211034 33 291 4.8 14.5 0.00 0.00 0.00 100 1016.9
20260507210534 32 261 12.9 16.1 0.00 0.00 0.00 100 1017.0
20260507210034 33 317 8.0 22.5 0.00 0.00 0.00 100 1017.0
20260507205717 32 289 8.0 19.3 0.00 0.00 0.00 100 1017.0
20260507205534 33 307 8.0 19.3 0.00 0.00 0.00 100 1017.0
20260507205034 33 262 4.8 24.1 0.00 0.00 0.00 100 1017.0
20260507204534 33 270 9.7 19.3 0.00 0.00 0.00 100 1017.0
20260507204034 32 286 8.0 22.5 0.00 0.00 0.00 100 1017.0
20260507203534 32 289 8.0 19.3 0.00 0.00 0.00 100 1017.0
20260507203307 32 327 4.8 20.9 0.00 0.00 0.00 100 1017.0
20260507203034 33 312 4.8 17.7 0.00 0.00 0.00 100 1017.0
20260507202534 32 327 4.8 20.9 0.00 0.00 0.00 100 1017.0
20260507202320 32 268 8.0 24.1 0.00 0.00 0.00 100 1017.0
20260507202034 32 268 8.0 24.1 0.00 0.00 0.00 100 1017.0
20260507201534 33 237 8.0 19.3 0.00 0.00 0.00 100 1017.0
20260507201034 33 296 3.2 17.7 0.00 0.00 0.00 100 1017.0
20260507200550 33 324 17.7 20.9 0.00 0.00 0.00 100 1017.1
20260507200534 33 284 11.3 17.7 0.00 0.00 0.00 100 1017.0
20260507200034 33 324 17.7 20.9 0.00 0.00 0.00 100 1017.1
20260507195534 33 265 6.4 17.7 0.00 0.00 0.00 100 1017.0
20260507195034 33 337 3.2 19.3 0.00 0.00 0.00 100 1017.1
20260507194534 33 358 6.4 14.5 0.00 0.00 0.00 100 1017.1
20260507194217 32 262 19.3 22.5 0.00 0.00 0.00 100 1017.3
20260507194034 34 275 3.2 14.5 0.00 0.00 0.00 100 1017.3
20260507193534 33 272 3.2 17.7 0.00 0.00 0.00 100 1017.3
20260507193034 32 255 16.1 20.9 0.00 0.00 0.00 100 1017.3
20260507192534 32 262 19.3 22.5 0.00 0.00 0.00 100 1017.3
20260507192516 33 279 8.0 20.9 0.00 0.00 0.00 100 1017.6
20260507192034 33 230 8.0 17.7 0.00 0.00 0.00 100 1017.3
20260507191534 33 251 9.7 22.5 0.00 0.00 0.00 100 1017.4
20260507191034 33 264 8.0 19.3 0.00 0.00 0.00 100 1017.5
20260507190534 33 279 8.0 20.9 0.00 0.00 0.00 100 1017.6
20260507190513 33 285 9.7 20.9 0.00 0.00 0.00 100 1018.3
20260507190034 33 232 12.9 17.7 0.00 0.00 0.00 100 1017.6
20260507185534 33 255 8.0 19.3 0.00 0.00 0.00 100 1017.8
20260507185034 32 217 8.0 20.9 0.00 0.00 0.00 100 1017.9
20260507184534 32 282 8.0 19.3 0.00 0.00 0.00 100 1018.0
20260507184034 33 270 9.7 17.7 0.00 0.00 0.00 100 1018.0
20260507183534 33 271 9.7 20.9 0.00 0.00 0.00 100 1018.2
20260507183034 33 246 6.4 16.1 0.00 0.00 0.00 100 1018.1